This is the latest recevied weather packets stored in our database for station/object YM7KGL-1. If no packets are shown the sender has not sent any weather packets the latest 10 day(s).
| Time | Temp. | Humidity | Pressure | Rain* | Wind** | Luminosity | Snow |
|---|---|---|---|---|---|---|---|
| 1778147158 | 25° C | 48% | 1019.1 hPa | - | - | - | - |
| 1778146258 | 25° C | 48% | 1018.9 hPa | - | - | - | - |
| 1778145357 | 25° C | 48% | 1018.9 hPa | - | - | - | - |
| 1778144457 | 25° C | 49% | 1019.2 hPa | - | - | - | - |
| 1778143598 | 25° C | 49% | 1019.3 hPa | - | - | - | - |
| 1778142698 | 24.44° C | 49% | 1019.3 hPa | - | - | - | - |
| 1778141798 | 24.44° C | 49% | 1019.5 hPa | - | - | - | - |
| 1778141239 | 24.44° C | 49% | 1019.5 hPa | - | - | - | - |
| 1778140897 | 24.44° C | 49% | 1019.5 hPa | - | - | - | - |
| 1778140085 | 23.89° C | 49% | 1019.3 hPa | - | - | - | - |
| 1778139184 | 23.89° C | 49% | 1019.3 hPa | - | - | - | - |
| 1778138284 | 23.33° C | 50% | 1019.5 hPa | - | - | - | - |
| 1778137384 | 23.33° C | 50% | 1019.4 hPa | - | - | - | - |
| 1778136536 | 22.78° C | 50% | 1019.4 hPa | - | - | - | - |
| 1778135635 | 22.22° C | 51% | 1019.4 hPa | - | - | - | - |
| 1778134735 | 21.67° C | 51% | 1019.4 hPa | - | - | - | - |
| 1778134515 | 21.11° C | 52% | 1019.4 hPa | - | - | - | - |
| 1778133820 | 21.11° C | 52% | 1019.4 hPa | - | - | - | - |
| 1778132920 | 20° C | 52% | 1019.3 hPa | - | - | - | - |
| 1778132019 | 19.44° C | 53% | 1019.2 hPa | - | - | - | - |
| 1778131119 | 18.33° C | 53% | 1019.3 hPa | - | - | - | - |
| 1778130219 | 17.22° C | 54% | 1019.4 hPa | - | - | - | - |
| 1778129512 | 16.67° C | 54% | 1019.4 hPa | - | - | - | - |
| 1778128611 | 16.11° C | 55% | 1019.3 hPa | - | - | - | - |
| 1778127711 | 15° C | 55% | 1019.3 hPa | - | - | - | - |
* Rain since midnight (hover to see other rain measurements)
** Current wind speed in m/s (hover to see current wind gust speed)